Regional Weather Roundup
Issued by NWS

Home | Current Version | Previous Version | Text Only | Print | Product List | Glossary On
Versions: 1 2 3 4 5 6 7 8 9 10 11 12 13 14 15 16 17 18 19 20 21 22 23 24 25 26 27 28 29 30 31 32 33 34 35 36 37 38 39 40 41 42 43 44 45 46 47 48 49 50
000
ASUS44 KFWD 310515
RWRTX
NORTH TEXAS HOURLY WEATHER ROUNDUP
NATIONAL WEATHER SERVICE FORT WORTH TX
1200 AM CDT SAT JUL 31 2021

NOTE: "FAIR" INDICATES FEW OR NO CLOUDS BELOW 12,000 FEET WITH NO
SIGNIFICANT WEATHER AND/OR OBSTRUCTIONS TO VISIBILITY.

TXZ118-119-310600-
DALLAS/FORT WORTH METROPLEX

CITY           SKY/WX    TMP DP  RH WIND       PRES   REMARKS
DFW AIRPORT    FAIR      87  74  64 S9        30.02S HX  95
DALLAS LOVE    FAIR      88  74  63 S8        30.03S HX  96
FTW MEACHAM    FAIR      84  72  67 SE7       30.04R
DAL-EXECUTIVE  FAIR      85  73  67 S7        30.04R HX  91
FTW-ALLIANCE   FAIR      86  72  62 S7        30.03S HX  92
FTW-NAS-JRB    FAIR      88  72  58 S6        30.04R HX  94
FTW-SPINKS     FAIR      82  73  73 CALM      30.06S
ARLINGTON      FAIR      87  74  64 SE6       30.04R HX  95
GRAND PRAIRIE  FAIR      85  72  64 SE5       30.05S HX  91
ADDISON        FAIR      86  73  65 S5        30.06S HX  93
MESQUITE       FAIR      80  75  84 CALM      30.04S
LANCASTER      FAIR      81  74  81 CALM      30.05R
$$

TXZ091>094-102>105-117-120-121-131>134-310600-
NORTH CENTRAL TEXAS

CITY           SKY/WX    TMP DP  RH WIND       PRES   REMARKS
SHRMAN/DENISON FAIR      84  71  64 SE8       30.06S
GAINESVILLE    FAIR      81  72  73 SE3       30.07S
BOWIE          FAIR      81  71  71 SE3       30.06R
BRIDGEPORT     FAIR      83  69  62 S5        30.06S
DECATUR        FAIR      85  71  63 SE6       30.06S
DENTON         FAIR      86  74  67 SE6       30.04R HX  94
MCKINNEY       FAIR      83  73  72 CALM      30.04S
BONHAM         FAIR      81  73  77 S3        30.05R
GREENVILLE     FAIR      78  75  90 CALM      30.05S
ROCKWALL       FAIR      83  73  71 CALM      30.05S HX  90
TERRELL        FAIR      82  76  81 CALM      30.04S
WAXAHACHIE     FAIR      80  74  81 CALM      30.06S
CLEBURNE       CLEAR     84  73  70 SE8       30.06S HX  91
GRANBURY       FAIR      85  73  65 SE6       30.05S HX  91
$$

TXZ083>090-098>101-113>116-127>130-139>142-154-155-310600-
WESTERN NORTH TEXAS

CITY           SKY/WX    TMP DP  RH WIND       PRES   REMARKS
WICHITA FALLS  FAIR      80  70  71 S7        30.03S
WF-KICKAPOO    FAIR      82  70  66 S3        30.05S
VERNON         FAIR      84  67  57 S7        30.05S
ABILENE        FAIR      82  65  56 SE8       30.09R
ABILENE-DYESS  FAIR      78  63  59 S7        30.07S
BRECKENRIDGE   FAIR      83  68  59 SE3       30.06S
CISCO          FAIR      79  66  65 MISG      30.08R
EASTLAND       FAIR      80  67  66 SE5       30.08S
RANGER         FAIR      81  68  65 S5        30.08S
MINERAL WELLS  FAIR      82  71  69 SE8       30.04S
STEPHENVILLE   FAIR      81  70  69 SE3       30.10S
COMANCHE       CLOUDY    79  69  71 S6        30.09R
COLEMAN        FAIR      82  65  55 S6        30.10R
BRADY          FAIR      79  64  61 SE5       30.10S
SAN SABA       FAIR      80  69  70 CALM      30.09R
$$

TXZ143>147-156>162-174-175-310600-
CENTRAL TEXAS

CITY           SKY/WX    TMP DP  RH WIND       PRES   REMARKS
WACO           FAIR      86  74  67 S9        30.04R HX  94
WACO-MCGREGOR  FAIR      81  73  76 S5        30.05S
HILLSBORO      FAIR      84  78  81 E5        30.04S HX  95
CORSICANA      FAIR      82  78  88 S6        30.05S HX  91
MEXIA          FAIR      80  77  90 CALM      30.05R
HEARNE         FAIR      81  74  79 SE5       30.06R
CAMERON        FAIR      81  73  77 S9        30.05S
TEMPLE         FAIR      81  72  74 E7        30.06R
KILLEEN        FAIR      82  69  65 SE5       30.05R
KILLEEN-SKYLRK FAIR      83  72  69 SE6       30.06S
FORT HOOD      FAIR      83  71  67 SE5       30.06S
GATESVILLE     FAIR      81  72  74 CALM      30.07S
HAMILTON       FAIR      82  69  65 SE6       30.09R
LAMPASAS       FAIR      81  69  67 CALM      30.04F
$$

TXZ095>097-106>112-122>126-135>138-148>153-164>167-310600-
EAST TEXAS

CITY           SKY/WX    TMP DP  RH WIND       PRES   REMARKS
SULPHUR SPRNGS FAIR      84  73  70 SE5       30.06S HX  91
MOUNT PLEASANT FAIR      80  78  91 E3        30.04S
GILMER         FAIR      79  76  92 CALM      30.04S
TYLER          FAIR      83  74  74 CALM      30.04S
LONGVIEW       FAIR      79  75  87 CALM      30.03S
MARSHALL       FAIR      77  75  93 CALM      30.06S
ATHENS           N/A     81  77  89 CALM      30.03S
PALESTINE      FAIR      79  79 100 CALM      30.04S FOG
HENDERSON      FAIR      77  75  94 CALM      30.06R
CENTER         FAIR      82  79  89 CALM      30.05S HX  93
NACOGDOCHES    FAIR      78  76  93 CALM      30.05S
LUFKIN         FAIR      82  78  88 S3        30.04S HX  91
$$

SUPPLEMENTAL OBSERVATIONS (NWS FORT WORTH AREA)

CITY           SKY/WX    TMP DP  RH WIND       PRES   REMARKS
CADDO GRASSLND   N/A     81  73  78 S2          N/A
LBJ GRASSLAND    N/A     82  70  65 SE5         N/A
POSSUM KINGDOM   N/A     84  68  58 SE5         N/A
GRANBURY         N/A     86  72  62 SE7         N/A  HX  92
COMANCHE         N/A     81  68  65 S7          N/A
MCGREGOR         N/A     81  72  74 S3          N/A
TEMPLE           N/A     82  70  65 SE1         N/A
LAKE LIMESTONE   N/A     81  75  83 S2          N/A
PALESTINE        N/A     79  75  89 CALM        N/A
$$

SUPPLEMENTAL OBSERVATIONS (NWS NORMAN AREA)

CITY           SKY/WX    TMP DP  RH WIND       PRES   REMARKS
GOODLETT         N/A     82  65  55 S6        30.05F
ODELL            N/A     83  69  62 S9        30.06S
CROWELL          N/A     82  69  66 S3        30.07S
KNOX CITY        N/A     80  67  63 S8        30.05S
SEYMOUR          N/A     79  68  68 CALM      30.05S
MILLERS CREEK    N/A     84  66  54 S8          N/A
$$

SUPPLEMENTAL OBSERVATIONS (NWS SAN ANGELO AREA)

CITY           SKY/WX    TMP DP  RH WIND       PRES   REMARKS
WEINERT          N/A     84  64  50 S10       30.07R
HASKELL          N/A     83  65  53 S7        30.06S
THROCKMORTON     N/A     80  67  64 S5        30.06S
STAMFORD         N/A     81  67  62 S7        30.08S
CLYDE            N/A     80  66  61 SE8       30.11S
HAMBY            N/A     82  64  54 SE3         N/A
IVIE RESERVOIR   N/A     81  63  54 E8          N/A
COLORADO BEND    N/A     81  66  61 SE3         N/A
$$

SUPPLEMENTAL OBSERVATIONS (NWS SHREVEPORT AREA)

CITY           SKY/WX    TMP DP  RH WIND       PRES   REMARKS
TEXARKANA        N/A     79  77  94 CALM        N/A
LINDEN           N/A     81  77  89 CALM        N/A
CADDO LAKE       N/A     79  77  94 CALM        N/A
LUFKIN           N/A     81  75  83 MISG        N/A
N SABINE NF      N/A     77  75  94 MISG        N/A
$$

SUPPLEMENTAL OBSERVATIONS ARE A COLLECTION OF AUTOMATED INSTRUMENTS
THAT ARE MAINTAINED BY A VARIETY OF FEDERAL AND STATE AGENCIES.
CERTAIN ELEMENTS...SUCH AS HUMIDITY VALUES AND SUSTAINED WIND
SPEEDS...MAY BE APPROXIMATED.




USA.gov is the U.S. government's official web portal to all federal, state and local government web resources and services.